Regional Weather Roundup
Issued by NWS

Home | Current Version | Previous Version | Graphics & Text | Print | Product List | Glossary Off
Versions: 1 2 3 4 5 6 7 8 9 10 11 12 13 14 15 16 17 18 19 20 21 22 23 24 25 26 27 28 29 30 31 32 33 34 35 36 37 38 39 40 41 42 43 44 45 46 47 48 49 50

000
ASUS43 KTOP 301008
RWRKS

WEATHER ROUNDUP FOR KANSAS
NATIONAL WEATHER SERVICE GOODLAND KS
500 AM CDT THU OCT 30 2014

NOTE:  "FAIR" INDICATES FEW OR NO CLOUDS BELOW 12,000 FEET WITH NO
SIGNIFICANT WEATHER AND/OR OBSTRUCTIONS TO VISIBILITY.

KSZ001>006-013>018-027>032-041>047-301100-
NORTHWEST KANSAS

CITY           SKY/WX    TMP DP  RH WIND       PRES   REMARKS
GOODLAND       CLEAR     39  26  59 NW12      30.21R WCI  32
HAYS           PTCLDY    46  30  53 NW12      30.06R
HILL CITY      CLEAR     49  27  42 NW10      30.10R
RUSSELL        PTCLDY    50  34  54 NW15      30.02R
$$

KSZ061>065-074>080-084>089-301100-
SOUTHWEST KANSAS

CITY           SKY/WX    TMP DP  RH WIND       PRES   REMARKS
DODGE CITY     CLEAR     49  35  58 NW13      30.09S
ELKHART          N/A     45  31  58 NW6         N/A
GARDEN CITY    CLEAR     47  30  51 NW14      30.11R
GREAT BEND     CLEAR     50  36  57 W13       30.05R
LIBERAL        CLEAR     43  34  70 W6        30.12S
PRATT          CLEAR     46  34  61 W8        30.05S
$$

KSZ066>073-081>083-090>101-301100-
SOUTHEAST KANSAS

CITY           SKY/WX    TMP DP  RH WIND       PRES   REMARKS
CHANUTE        CLEAR     48  41  76 S8        30.06S
COFFEYVILLE    CLEAR     46  40  79 S5        30.07F
HUTCHINSON     PTCLDY    51  34  52 SW7       30.03R
MEDICINE LODGE   N/A     44  35  70 CALM      30.05F
NEWTON         MOCLDY    54  30  40 SW12      30.04S
PARSONS        CLEAR     49  42  77 S5        30.07F
WICHITA INTL   MOCLDY    48  36  63 S7        30.03F
WICHITA JABRA  PTCLDY    53  36  52 S15       30.03F
WICHITA MCCONL MOCLDY    49  37  63 S9        30.04S
WINFIELD       CLEAR     50  38  63 S8        30.07S
$$

KSZ007>012-019>026-033>040-048>060-102>105-301100-
NORTHEAST KANSAS

CITY           SKY/WX    TMP DP  RH WIND       PRES   REMARKS
CONCORDIA      PTCLDY    47  37  68 NW7       29.98R
EMPORIA        MOCLDY    49  39  68 S9        30.01F
LAWRENCE       MOCLDY    48  40  73 SE7       30.01F
MANHATTAN      CLOUDY    56  36  47 SW10      29.97S
MARYSVILLE     CLOUDY    52  37  58 W5        29.99R
OLATHE IND     PTCLDY    47  39  74 S8        30.03F
OLATHE EXE     PTCLDY    47  39  74 S8        30.02F
SALINA         PTCLDY    52  35  52 SW9       29.99S
TOPEKA BILLARD CLOUDY    51  40  65 S5        29.99F
TOPEKA FORBES  CLOUDY    50  40  68 S8        29.99F
$$



USA.gov is the U.S. government's official web portal to all federal, state and local government web resources and services.